Home   Weather   Masaya   Past weeks

Flag for Nicaragua Past Weather in Masaya, Nicaragua — Yesterday and Last 2 Weeks

Now
75 °F

Passing clouds.


Feels Like: 75 °F
Forecast: 73 / 84 °F
Wind: 5 mph from Southeast

Location: Managua A. C. Sandino

Current Time: Dec 11, 2016 at 12:10:19 am

Latest Report: Dec 10, 2016 at 11:00 pm


Visibility: N/A

Pressure: 29.89 "Hg

Humidity: 83%

Dew Point: 70 °F

Location of MasayaLocation

Past Weather in Masaya — Graph

°F

Masaya Temperature Yesterday

Maximum temperature yesterday: 90 °F (at 11:00 am)
Minimum temperature yesterday: 73 °F (at 6:00 am)
Average temperature yesterday: 81 °F

High & Low Weather Summary for the Past Weeks

 TemperatureHumidityPressure
High93 °F (Nov 27, 2:00 pm)94% (Nov 26, 6:00 am)32.19 "Hg (Nov 26, 6:00 am)
Low72 °F (Dec 7, 5:00 am)46% (Nov 28, 12:00 pm)29.71 "Hg (Nov 28, 3:00 pm)
Average82 °F73%29.84 "Hg
* Reported Nov 25 10:00 pm — Dec 10 10:00 pm, Masaya, Weather by CustomWeather, © 2016

Note: Actual official high and low records may vary slightly from our data, if they occured in-between our weather recording intervals... More about our weather records

Advertising

Masaya Weather History for the Previous 24 Hours

Scroll right to see more
 ConditionsComfort  
Time TempWeatherWind HumidityBarometerVisibility
10:00 pm
Sat, Dec 10
77 °FPassing clouds.5 mph79%29.89 "HgN/A
9:00 pm77 °FPassing clouds.7 mph79%29.89 "HgN/A
8:00 pm79 °FPassing clouds.7 mph74%29.89 "HgN/A
7:00 pm81 °FPassing clouds.12 mph66%29.86 "HgN/A
6:00 pm81 °FPassing clouds.9 mph70%29.83 "HgN/A
5:00 pm82 °FScattered clouds.9 mph62%29.83 "HgN/A
4:00 pm84 °FScattered clouds.18 mph55%29.83 "HgN/A
3:00 pm86 °FScattered clouds.12 mph52%29.83 "HgN/A
2:00 pm86 °FScattered clouds.21 mph55%29.83 "HgN/A
1:00 pm88 °FScattered clouds.12 mph49%29.86 "HgN/A
12:00 pm90 °FScattered clouds.14 mph46%29.89 "HgN/A
11:00 am90 °FScattered clouds.14 mph46%29.89 "HgN/A
10:00 am88 °FScattered clouds.12 mph52%29.92 "HgN/A
9:00 am84 °FScattered clouds.9 mph58%29.92 "HgN/A
8:00 am82 °FPartly sunny.7 mph62%29.92 "HgN/A
7:00 am77 °FScattered clouds.5 mph74%29.92 "HgN/A
6:00 am73 °FPartly sunny.9 mph83%29.89 "HgN/A
4:00 am75 °FPassing clouds.9 mph83%29.89 "HgN/A
3:00 am75 °FPassing clouds.5 mph89%29.89 "HgN/A
1:00 am77 °FPassing clouds.9 mph79%29.89 "HgN/A
12:00 am75 °FPassing clouds.5 mph83%29.92 "HgN/A
Weather by CustomWeather, © 2016

See weather overviewHow to use our weather pages